Regional Weather Roundup
Issued by NWS

Home | Current Version | Previous Version | Text Only | Print | Product List | Glossary On
Versions: 1 2 3 4 5 6 7 8 9 10 11 12 13 14 15 16 17 18 19 20 21 22 23 24 25 26 27 28 29 30 31 32 33 34 35 36 37 38 39 40 41 42 43 44 45 46 47 48 49 50
000
ASUS43 KMKX 011659
RWRWI

WISCONSIN REGIONAL WEATHER ROUNDUP
NATIONAL WEATHER SERVICE MILWAUKEE/SULLIVAN WI
1100 AM CST SUN MAR 01 2015

NOTE: "FAIR" INDICATES FEW OR NO CLOUDS BELOW 12,000 FEET WITH NO
SIGNIFICANT WEATHER AND/OR OBSTRUCTIONS TO VISIBILITY.

WIZ001-002-006>008-014>016-023>028-011800-
NORTHWEST WISCONSIN

CITY           SKY/WX    TMP DP  RH WIND       PRES   REMARKS
SUPERIOR ARPT  MOSUNNY   20   8  58 W14       30.18S WCI   7
ASHLAND        FLURRIES  20  11  68 W13G23    30.16S WCI   7
HAYWARD        LGT SNOW  18  10  71 SW14G21   30.15F WCI   4
SIREN          PTSUNNY   20  11  66 W10G18    30.20R WCI   9
CUMBERLAND     LGT SNOW  18  12  79 SW10      30.18R WCI   6
RICE LAKE      LGT SNOW  19  13  79 SW8       30.21S WCI   8
CHETEK         LGT SNOW  18  13  79 SW8G16    30.21S WCI   8
LADYSMITH      LGT SNOW  17  12  79 SW8       30.19F WCI   7
EAU CLAIRE     NOT AVBL
MENOMONIE      LGT SNOW  20  13  76 SW10G16   30.24F WCI   8
NEW RICHMOND   MOSUNNY   21  10  64 W12       30.23S WCI   9
OSCEOLA        MOSUNNY   21  10  63 W14       30.27R WCI   8
$$

WIZ003>005-009-010-017-018-011800-
NORTH CENTRAL WISCONSIN

CITY           SKY/WX    TMP DP  RH WIND       PRES   REMARKS
MANITOWISH WTR LGT SNOW  15  10  79 SW10      30.11S WCI   2
ARBOR VITAE    LGT SNOW  17  10  76 W13G22    30.12S WCI   3
WOODRUFF       LGT SNOW  17  10  76 W13G22    30.12S WCI   3
RHINELANDER    LGT SNOW  16   9  74 W12G18    30.13F WCI   3
EAGLE RIVER    LGT SNOW  15   7  71 SW10      30.12S WCI   2
LAND O LAKES   FLURRIES  17   8  68 SW8       30.11S WCI   7
PHILLIPS       LGT SNOW  15   9  80 SW9       30.14F WCI   3
TOMAHAWK       LGT SNOW  15   9  76 SW7       30.16F WCI   6
MEDFORD        LGT SNOW  14  10  81 SW9       30.17F WCI   2
MERRILL        LGT SNOW  15  10  77 SW10      30.19F WCI   3
$$

WIZ029-030-035-036-043>047-011800-
CENTRAL WISCONSIN

CITY           SKY/WX    TMP DP  RH WIND       PRES   REMARKS
WAUSAU         CLOUDY    15   9  76 SW9       30.20F HAZE    WCI   3
MOSINEE        FLURRIES  14  10  85 SW9       30.23S WCI   2
MARSHFIELD     LGT SNOW  16  10  77 SW15      30.21F WCI   1
STEVENS POINT  CLOUDY    15   9  76 W7        30.25S WCI   5
WAUPACA        MOSUNNY   25  13  60 SW8       30.26F WCI  16
WAUTOMA        NOT AVBL
WISC RAPIDS    CLOUDY    19  10  68 VRB7      30.26F WCI  10
CAMP DOUGLAS   NOT AVBL
$$

WIZ011>013-019>022-031-037>040-048>050-011800-
NORTHEAST WISCONSIN

CITY           SKY/WX    TMP DP  RH WIND       PRES   REMARKS
ANTIGO         FLURRIES  14   9  81 SW10      30.17F WCI   1
SHAWANO        MOSUNNY   21  12  66 SW13      30.26F WCI   9
OCONTO         MOSUNNY   22  12  65 SW10      30.26F WCI  11
STURGEON BAY   MOSUNNY   21  10  63 SW16      30.26F WCI   7
GREEN BAY      MOSUNNY   23  14  68 SW9G18    30.26F WCI  13
MANITOWOC      NOT AVBL
APPLETON       PTSUNNY   21  12  68 SW9       30.26F WCI  11
CLINTONVILLE   MOSUNNY   19  12  73 SW12      30.26F WCI   7
OSHKOSH        SUNNY     22  13  68 SW8       30.27F WCI  12
$$

WIZ032>034-041-042-053>061-011800-
SOUTHWEST WISCONSIN

CITY           SKY/WX    TMP DP  RH WIND       PRES   REMARKS
LA CROSSE      CLOUDY    21  14  74 W7        30.30S WCI  12
SPARTA         FLURRIES  19  13  79 W9        30.29F WCI   7
VIROQUA        CLOUDY    19  15  82 SW13      30.26F WCI   6
BOSCOBEL       SUNNY     23  13  65 SW10      30.33S WCI  12
PRAIRIE DU CHI PTSUNNY   22  13  68 SW5       30.34S WCI  16
PLATTEVILLE    MOSUNNY   18  16  91 S8        30.32S WCI   8
$$

WIZ056-057-062-063-064-067-068-011800-
SOUTH CENTRAL WISCONSIN

CITY           SKY/WX    TMP DP  RH WIND       PRES   REMARKS
REEDSBURG      SUNNY     21  14  74 SW7       30.28F WCI  12
BARABOO/DELLS  SUNNY     20  13  72 SW9       30.28F WCI  10
LONE ROCK      NOT AVBL
MINERAL POINT  MOSUNNY   18  14  86 S3        30.29F FOG
MADISON        FLURRIES  20  12  71 S6        30.31F WCI  12
MIDDLETON      CLOUDY    22  13  67 SW6       30.32S WCI  15
WATERTOWN      MOSUNNY   20  14  76 W3        30.31F
MONROE         MOSUNNY   21  19  93 SW6       30.31F WCI  14
JANESVILLE     SUNNY     21  14  73 SW7       30.34S WCI  13
$$

WIZ051-052-058>065-066-070>072-011800-
SOUTHEAST WISCONSIN

CITY           SKY/WX    TMP DP  RH WIND       PRES   REMARKS
MILWAUKEE      PTSUNNY   22  13  68 SW9       30.33S WCI  12
WAUKESHA       PTSUNNY   16  12  86 W5        30.32S WCI   9
MILWAUKEE/TIMM MOSUNNY   21  12  68 SW6       30.33  WCI  14
RACINE         MOSUNNY   20  12  71 SW8       30.35S WCI  10
BURLINGTON     PTSUNNY   20  13  73 SW7       30.33S WCI  11
KENOSHA        PTSUNNY   21  15  78 SW10      30.34S WCI  10
FOND DU LAC    SUNNY     23  13  65 SW9       30.29F WCI  13
SHEBOYGAN      SUNNY     21  11  65 W8        30.29F WCI  11
WEST BEND      MOSUNNY   21  12  68 W8        30.30S WCI  12
JUNEAU         MOSUNNY   20  14  77 SW8       30.31F WCI  10
$$

LSZ147-162-011800-
LAKE SUPERIOR

STATION/POSITION TIME  TEMP    WIND        PRES    WAVE
                       AIR SEA DIR/SP/G            HT/PER
                 (UTC) (F)     (DEG/KT/KT) (MB)    (FT/S)
DEVILS ISLAND    1600   17     230/ 13/ 19 1021.7F
PORT WING        1640   19     250/ 11/ 17 1021.3S
SAXON HARBOR     1600   19     200/ 11/ 16 1021.3S
$$

LMZ867-665-643>646-011800-
LAKE MICHIGAN

STATION/POSITION TIME  TEMP    WIND        PRES    WAVE
                       AIR SEA DIR/SP/G            HT/PER
                 (UTC) (F)     (DEG/KT/KT) (MB)    (FT/S)
NORTHPORT PIER   1607   20     230/  6/ 14 1024.4F
SISTER BAY       1643   26     190/ 11/ 14   N/A
KEWAUNEE LAKESHO 1600   19     250/  7/ 12 1025.0F
SHEBOYGAN LAKESH 1600   18     230/  7/ 10 1028.2F
PORT WASHINGTON  1600   21     260/  8/ 11 1027.4
MILWAUKEE LAKESH 1600   20     250/  6/  8   N/A
KENOSHA   LAKESH 1600   18     240/  3/  4 1027.8F
$$

TC  - TEMPERATURE IN CELSIUS
VSB - VISIBILITY IN STATUTE MILES
WCI - WIND CHILL INDEX
HX  - HEAT INDEX



USA.gov is the U.S. government's official web portal to all federal, state and local government web resources and services.